Martinsburg, WV

8:40 PM EDT on April 20, 2018 (GMT -0400)
Eastern W Va Regional-Shepherd

Weather History for KMRB - January, 2013

Change the Weather History Date:

Sunday, January 13, 2013

  Actual Average Record
Temperature  
Mean Temperature 50 °F 31 °F  
Max Temperature 58 °F 39 °F 69 °F (2005)
Min Temperature 41 °F 22 °F -6 °F (1981)
Degree Days  
Heating Degree Days 15 34  
Month to date heating degree days 348 442  
Since 1 July heating degree days 2234 2468  
Cooling Degree Days 0 0  
Month to date cooling degree days 0 0  
Year to date cooling degree days 0 0  
Moisture  
Dew Point 44 °F    
Average Humidity 84    
Maximum Humidity 96    
Minimum Humidity 72    
Precipitation  
Precipitation 0.00 in 0.08 in 0.84 in (1964)
Month to date precipitation 0.08 0.97  
Year to date precipitation 0.08 0.97  
Sea Level Pressure  
Sea Level Pressure 30.03 in    
Wind  
Wind Speed 1 mph (North)    
Max Wind Speed 7 mph    
Max Gust Speed 13 mph    
Visibility 4 miles    
Events Fog    
T = Trace of Precipitation, MM = Missing Value Source: NWS Daily Summary

Daily Weather History Graph

Daily Weather History Graph

Search for Another Location

Airport or City:

Astronomy

Jan. 13, 2013 Rise Set
Actual Time 7:30 AM EST 5:10 PM EST
Civil Twilight 7:01 AM EST 5:40 PM EST
Nautical Twilight 6:28 AM EST 6:13 PM EST
Astronomical Twilight 5:55 AM EST 6:45 PM EST
Moon 8:29 AM EST (1/13) 7:46 PM EST (1/13)
Length of Visible Light 10h 39m
Length of Day
9h 40m
Waxing Crescent, 5% of the Moon is Illuminated
Jan 13
Waxing Crescent
Jan 18
First Quarter
Jan 26
Full
Feb 3
Last Quarter
Feb 10
New

Hourly Weather History & Observations

Time (EST) Temp. Windchill Dew Point Humidity Pressure Visibility Wind Dir Wind Speed Gust Speed Precip Events Conditions
12:08 AM 44.6 °F - 42.8 °F 93% 30.08 in 2.5 mi Calm Calm - N/A   Mostly Cloudy
12:17 AM 44.6 °F - 42.8 °F 93% 30.08 in 3.0 mi Calm Calm - N/A   Scattered Clouds
12:27 AM 44.6 °F - 42.8 °F 93% 30.08 in 2.5 mi Calm Calm - N/A   Mostly Cloudy
12:50 AM 44.6 °F 43.1 °F 42.8 °F 93% 30.08 in 3.0 mi NNW 3.5 mph - N/A   Partly Cloudy
12:53 AM 45.0 °F 43.5 °F 42.1 °F 90% 30.09 in 3.0 mi NNW 3.5 mph - N/A   Partly Cloudy
1:03 AM 44.6 °F 43.1 °F 42.8 °F 93% 30.08 in 2.5 mi NNW 3.5 mph - N/A   Clear
1:18 AM 44.6 °F 43.1 °F 42.8 °F 93% 30.08 in 3.0 mi NNW 3.5 mph - N/A   Clear
1:37 AM 44.6 °F 43.1 °F 42.8 °F 93% 30.08 in 2.5 mi NNE 3.5 mph - N/A   Partly Cloudy
1:53 AM 44.1 °F 41.5 °F 41.0 °F 89% 30.09 in 2.5 mi NNE 4.6 mph - N/A   Partly Cloudy
2:25 AM 44.6 °F - 42.8 °F 93% 30.09 in 2.0 mi Calm Calm - N/A   Mostly Cloudy
2:36 AM 44.6 °F - 42.8 °F 93% 30.08 in 2.0 mi Calm Calm - N/A   Overcast
2:53 AM 44.1 °F - 42.1 °F 93% 30.07 in 1.8 mi Calm Calm - N/A   Mostly Cloudy
2:57 AM 44.6 °F - 42.8 °F 93% 30.07 in 2.0 mi Calm Calm - N/A   Mostly Cloudy
3:09 AM 44.6 °F - 42.8 °F 93% 30.06 in 1.8 mi Calm Calm - N/A   Mostly Cloudy
3:30 AM 42.8 °F 41.1 °F 41.0 °F 93% 30.06 in 1.8 mi NW 3.5 mph - N/A   Overcast
3:53 AM 43.0 °F - 41.0 °F 93% 30.04 in 1.2 mi Calm Calm - N/A   Scattered Clouds
4:02 AM 42.8 °F 41.1 °F 39.2 °F 87% 30.03 in 0.5 mi NNE 3.5 mph - N/A Fog Fog
4:10 AM 42.8 °F 40.1 °F 39.2 °F 87% 30.03 in 0.8 mi NE 4.6 mph - N/A   Clear
4:16 AM 41.0 °F - 39.2 °F 93% 30.03 in 0.2 mi Calm Calm - N/A Fog Fog
4:33 AM 41.0 °F - 39.2 °F 93% 30.02 in 0.5 mi Calm Calm - N/A Fog Fog
4:40 AM 42.8 °F - 41.0 °F 93% 30.02 in 0.2 mi Calm Calm - N/A Fog Fog
4:49 AM 42.8 °F - 41.0 °F 93% 30.02 in 0.8 mi Calm Calm - N/A   Mostly Cloudy
4:53 AM 43.0 °F - 41.0 °F 93% 30.03 in 0.8 mi Calm Calm - N/A   Overcast
5:01 AM 42.8 °F - 42.8 °F 100% 30.02 in 1.2 mi Calm Calm - N/A   Overcast
5:35 AM 44.6 °F - 42.8 °F 93% 30.02 in 2.0 mi Calm Calm - N/A   Overcast
5:53 AM 44.1 °F - 42.1 °F 93% 30.03 in 2.5 mi Calm Calm - N/A   Overcast
6:53 AM 44.1 °F - 42.1 °F 93% 30.03 in 2.5 mi Calm Calm - N/A   Overcast
7:02 AM 44.6 °F 43.1 °F 42.8 °F 93% 30.02 in 2.5 mi NNW 3.5 mph - N/A   Overcast
7:45 AM 44.6 °F - 42.8 °F 93% 30.03 in 1.0 mi Calm Calm - N/A   Overcast
7:53 AM 45.0 °F - 43.0 °F 93% 30.04 in 0.8 mi Calm Calm - N/A   Overcast
8:00 AM 44.6 °F 43.1 °F 42.8 °F 93% 30.04 in 1.0 mi Variable 3.5 mph - N/A   Overcast
8:42 AM 46.4 °F - 44.6 °F 93% 30.07 in 2.0 mi Calm Calm - N/A   Overcast
8:53 AM 46.9 °F - 44.1 °F 90% 30.06 in 2.0 mi Calm Calm - N/A   Overcast
9:07 AM 48.2 °F - 44.6 °F 87% 30.06 in 3.0 mi Calm Calm - N/A   Overcast
9:24 AM 48.2 °F - 44.6 °F 87% 30.07 in 5.0 mi Calm Calm - N/A   Overcast
9:53 AM 50.0 °F - 46.0 °F 86% 30.08 in 6.0 mi North 3.5 mph - N/A   Overcast
10:53 AM 53.1 °F - 46.9 °F 80% 30.06 in 8.0 mi Calm Calm - N/A   Mostly Cloudy
11:05 AM 53.6 °F - 46.4 °F 77% 30.05 in 9.0 mi Calm Calm - N/A   Scattered Clouds
11:53 AM 54.0 °F - 46.9 °F 77% 30.03 in 9.0 mi NNE 3.5 mph - N/A   Clear
12:53 PM 57.0 °F - 48.0 °F 72% 30.01 in 8.0 mi North 3.5 mph - N/A   Clear
1:53 PM 57.0 °F - 48.9 °F 74% 29.98 in 10.0 mi NE 3.5 mph - N/A   Clear
2:53 PM 57.9 °F - 51.1 °F 78% 29.99 in 10.0 mi ENE 4.6 mph - N/A   Clear
3:53 PM 57.0 °F - 51.1 °F 81% 30.00 in 10.0 mi East 3.5 mph - N/A   Clear
4:53 PM 55.0 °F - 50.0 °F 83% 30.00 in 10.0 mi Calm Calm - N/A   Clear
5:53 PM 53.1 °F - 50.0 °F 89% 30.00 in 10.0 mi Calm Calm - N/A   Clear
6:53 PM 52.0 °F - 48.9 °F 89% 29.98 in 8.0 mi Calm Calm - N/A   Clear
7:53 PM 51.1 °F - 48.0 °F 89% 29.97 in 7.0 mi Calm Calm - N/A   Mostly Cloudy
8:53 PM 51.1 °F - 48.0 °F 89% 29.96 in 6.0 mi Calm Calm - N/A   Overcast
9:53 PM 51.1 °F - 48.0 °F 89% 29.95 in 5.0 mi Calm Calm - N/A   Mostly Cloudy
10:53 PM 50.0 °F - 46.9 °F 89% 29.95 in 4.0 mi Calm Calm - N/A   Partly Cloudy
11:07 PM 50.0 °F - 48.2 °F 94% 29.94 in 5.0 mi Calm Calm - N/A   Scattered Clouds
11:53 PM 50.0 °F - 46.9 °F 89% 29.95 in 5.0 mi Calm Calm - N/A   Mostly Cloudy